Hourly Data Report for April 13, 2018

CLYDE RIVER A
NUNAVUT
Current Station Operator: NAVCAN

70°29'09.000" N
68°31'01.000" W
26.50 m
2400804
71090
YCY

Download Data

Hourly Data (April 2018)
Hourly Data Report for April 13, 2018
TIME
LST
Temp Definition
°C
Dew Point Definition
°C
Rel Hum Definition
%
Precip. Amount Definition
mm

Wind Dir Definition
10's deg

Wind Spd Definition
km/h
Visibility Definition
km
Stn Press Definition
kPa
Hmdx Definition


Wind Chill Definition


Weather Definition


00:00 -28.8 -31.7 77 0.0 28 5 16.1 101.31   -34 LegendNANA
01:00 -27.7 -30.2 80 0.0 27 5 16.1 101.34   -33 LegendNANA
02:00 -27.8 -30.3 80 0.0 28 5 16.1 101.38   -33 LegendNANA
03:00 -28.1 -30.8 79 0.0 27 8 16.1 101.42   -36 LegendNANA
04:00 -28.0 -30.6 79 0.0 28 8 16.1 101.48   -36 LegendNANA
05:00 -27.9 -30.5 79 0.0 28 8 16.1 101.51   -36 LegendNANA
06:00 -26.9 -29.2 81 0.0 26 5 16.1 101.53   -32 LegendNANA
07:00 -26.4 -28.9 80 0.0 26 5 16.1 101.55   -32 LegendNANA
08:00 -25.7 -28.1 81 0.0 25 5 16.1 101.57   -31 LegendNANA
09:00 -23.6 -26.0 81 0.0 30 5 16.1 101.62   -28 LegendNANA
10:00 -22.4 -24.8 81 0.0   0 16.1 101.64     LegendNANA
11:00 -21.3 -23.8 81 0.0   0 16.1 101.65     LegendNANA
12:00 -19.9 -22.8 78 0.0 9 4 16.1 101.66   -23 LegendNANA
13:00 -19.3 -22.5 77 0.0 LegendMM 4 16.1 101.69   -23 LegendNANA
14:00 -19.0 -22.5 74 0.0 22 5 16.1 101.69   -23 LegendNANA
15:00 -18.9 -22.6 73 0.0 22 8 16.1 101.71   -25 LegendNANA
16:00 -19.5 -22.7 76 0.0 25 4 16.1 101.74   -23 LegendNANA
17:00 -20.7 -23.7 78 0.0 24 4 16.1 101.77   -24 LegendNANA
18:00 -23.1 -25.9 78 0.0 36 4 16.1 101.79   -27 LegendNANA
19:00 -25.8 -28.4 79 0.0   0 16.1 101.78     LegendNANA
20:00 -26.0 -27.9 84 0.0 LegendMM 4 16.1 101.78   -30 LegendNANA
21:00 -26.2 -28.4 82 0.0   0 16.1 101.74     LegendNANA
22:00 -26.5 -28.9 81 0.0 26 9 16.1 101.72   -34 LegendNANA
23:00 -27.4 -30.1 78 0.0 26 9 16.1 101.67   -36 LegendNANA

Notes on Data Quality.

Legend

  • E = Estimated
  • M = Missing
  • NA = Not Available*
  • [empty] = Indicates an unobserved value
Date modified: